Weather History for San Antonio Stinson, TX

Change the Weather History Date:

Friday, July 5, 2013

  Actual Average Record
Temperature  
Mean Temperature 82 °F -  
Max Temperature 96 °F 91 °F 100 °F (1998)
Min Temperature 69 °F 71 °F 69 °F (2008)
Cooling Degree Days 18    
Growing Degree Days 32 (Base 50)    
Moisture  
Dew Point 65 °F    
Average Humidity 65    
Maximum Humidity 94    
Minimum Humidity 29    
Precipitation  
Precipitation 0.00 in - - ()
Sea Level Pressure  
Sea Level Pressure 29.90 in    
Wind  
Wind Speed 4 mph (SE)    
Max Wind Speed 15 mph    
Max Gust Speed 22 mph    
Visibility 9 miles    
Events      
Averages and records for this station are not official NWS values.
T = Trace of Precipitation, MM = Missing Value Source: NWS Daily Summary

Daily Weather History Graph

Daily Weather History Graph

Search for Another Location

Airport:

Trip Planner

Search our weather history database for the weather conditions in past years. The results will help you decide how hot, cold, wet, or windy it might be!

Date:

Astronomy

Jul. 05, 2013 Rise Set
Actual Time 6:39 AM CDT 8:37 PM CDT
Civil Twilight 6:12 AM CDT 9:04 PM CDT
Nautical Twilight 5:40 AM CDT 9:36 PM CDT
Astronomical Twilight 5:05 AM CDT 10:11 PM CDT
Moon 4:36 AM CDT (7/5) 6:37 PM CDT (7/5)
Length of Visible Light 14h 51m
Length of Day
13h 57m
Waning Crescent, 6% of the Moon is Illuminated
Jul 5
Waning Crescent
Jul 8
New
Jul 15
First Quarter
Jul 22
Full
Jul 29
Last Quarter

Hourly Weather History & Observations

Time (CDT) Temp. Heat Index Dew Point Humidity Pressure Visibility Wind Dir Wind Speed Gust Speed Precip Events Conditions
12:53 AM 75.9 °F - 62.1 °F 62% 29.93 in 10.0 mi SE 4.6 mph - N/A   Clear
1:53 AM 73.0 °F - 64.9 °F 76% 29.93 in 10.0 mi SE 4.6 mph - N/A   Clear
2:53 AM 73.0 °F - 66.0 °F 79% 29.92 in 10.0 mi SE 3.5 mph - N/A   Clear
3:53 AM 72.0 °F - 68.0 °F 87% 29.91 in 9.0 mi Calm Calm - N/A   Clear
4:53 AM 71.1 °F - 68.0 °F 90% 29.91 in 8.0 mi North 3.5 mph - N/A   Scattered Clouds
5:05 AM 71.6 °F - 68.0 °F 88% 29.95 in 8.0 mi North 3.5 mph - N/A   Mostly Cloudy
5:37 AM 71.6 °F - 66.2 °F 83% 29.95 in 8.0 mi Calm Calm - N/A   Scattered Clouds
5:53 AM 71.1 °F - 66.9 °F 87% 29.92 in 8.0 mi Calm Calm - N/A   Clear
6:10 AM 69.8 °F - 68.0 °F 94% 29.95 in 8.0 mi Calm Calm - N/A   Mostly Cloudy
6:25 AM 69.8 °F - 68.0 °F 94% 29.96 in 7.0 mi Calm Calm - N/A   Scattered Clouds
6:53 AM 70.0 °F - 66.9 °F 90% 29.93 in 6.0 mi Calm Calm - N/A   Scattered Clouds
7:53 AM 73.0 °F - 69.1 °F 87% 29.94 in 6.0 mi Calm Calm - N/A   Scattered Clouds
8:02 AM 73.4 °F - 71.6 °F 94% 29.97 in 5.0 mi Calm Calm - N/A   Mostly Cloudy
8:37 AM 75.2 °F - 71.6 °F 89% 29.97 in 6.0 mi Calm Calm - N/A   Haze
8:53 AM 77.0 °F - 71.1 °F 82% 29.94 in 6.0 mi SSE 3.5 mph - N/A   Haze
9:53 AM 79.0 °F - 70.0 °F 74% 29.96 in 8.0 mi SSW 3.5 mph - N/A   Clear
10:53 AM 82.0 °F 83.8 °F 64.9 °F 56% 29.94 in 10.0 mi Calm Calm - N/A   Clear
11:53 AM 86.0 °F 87.6 °F 64.9 °F 49% 29.93 in 10.0 mi East 4.6 mph - N/A   Clear
12:53 PM 89.1 °F 90.3 °F 64.0 °F 43% 29.92 in 10.0 mi Variable 4.6 mph - N/A   Clear
1:53 PM 91.0 °F 91.9 °F 63.0 °F 39% 29.90 in 10.0 mi Variable 5.8 mph - N/A   Clear
2:53 PM 93.9 °F 94.8 °F 62.1 °F 35% 29.87 in 10.0 mi SSE 9.2 mph - N/A   Clear
3:53 PM 93.9 °F 94.8 °F 62.1 °F 35% 29.85 in 10.0 mi ESE 9.2 mph 19.6 mph N/A   Partly Cloudy
4:53 PM 96.1 °F 96.0 °F 60.1 °F 30% 29.82 in 10.0 mi SSE 8.1 mph - N/A   Partly Cloudy
5:53 PM 95.0 °F 94.4 °F 59.0 °F 30% 29.80 in 10.0 mi SE 10.4 mph - N/A   Partly Cloudy
6:53 PM 95.0 °F 94.0 °F 57.9 °F 29% 29.79 in 10.0 mi SE 6.9 mph - N/A   Partly Cloudy
7:53 PM 93.0 °F 92.0 °F 57.9 °F 31% 29.79 in 10.0 mi SSE 6.9 mph - N/A   Mostly Cloudy
8:53 PM 88.0 °F 87.1 °F 59.0 °F 37% 29.81 in 10.0 mi SE 3.5 mph - N/A   Clear
9:53 PM 86.0 °F 87.3 °F 64.0 °F 48% 29.84 in 10.0 mi SE 15.0 mph 19.6 mph N/A   Clear
10:53 PM 84.0 °F 86.5 °F 66.9 °F 56% 29.86 in 10.0 mi SE 13.8 mph 21.9 mph N/A   Clear
11:53 PM 82.0 °F 84.9 °F 68.0 °F 62% 29.89 in 10.0 mi SE 8.1 mph - N/A   Clear